SCP
-0 0 0 -0 0 -0 -0 -0 -0 -0 -0 -0 -0 -0 -0 -0 -0 -0 -0 -0 -0 -0 -0 -0 -0 -0 -0 -0 -0 -0 -0 -0 -0 -0 -0 -0 -0 -0 -0 0 0 0 -0
-0 -0 0 -0 -0 -0 -0 -0 0 -0 -0 -0 -0 -0 -0 -0 -0 -0 -0 -0 -0 -0 -0 -0 -0 -0 -0 -0 -0 -0 -0 -0 -0 -0 -0 -0 -0 -0 -0 -0 -0 -0 -0
0 -0 0 -0 0 -0 -0 0 -0 -0 -0 -0 -0 -0 -0 -0 -0 -0 -0 -0 -0 -0 -0 -0 -0 -0 -0 -0 -0 -0 -0 -0 0 0 -0 0 -0 -0 -0 -0 -0 -0 -0
0 0 0 0 0 0 0 0 -0 -0 -0 -0 -0 -0 0 -0 -0 -0 -0 -0 -0 -0 -0 -0 -0 -0 -0 -0 -0 -0 -0 -0 0 0 -0 -0 -0 -0 -0 -0 -0 -0 -0
0 0 0 0 0 0 0 0 0 0 0 -0 -0 -0 -0 -0 -0 -0 -0 -0 -0 -0 -0 -0 -0 -0 -0 -0 -0 -0 -0 -0 0 -0 -0 -0 0 -0 -0 -0 -0 -0 -0
0 0 -0 0 0 0 0 0 -0 -0 0 0 -0 -0 -0 -0 -0 -0 -0 -0 -0 -0 -0 -0 -0 -0 -0 -0 -0 -0 -0 -0 0 -0 -0 -0 -0 -0 -0 -0 -0 -0 0
-0 -0 -0 0 0 0 0 0 0 0 0 -0 -0 -0 -0 -0 -0 -0 -0 -0 -0 -0 -0 -0 -0 -0 -0 -0 -0 0 0 0 0 0 0 0 0 0 0 0 0 0 0
-0 -0 -0 -0 -0 0 0 0 0 -0 0 -0 -0 -0 -0 -0 -0 -0 -0 -0 -0 -0 -0 -0 -0 -0 -0 -0 0 0 0 0 0 0 0 0 0 0 0 0 0 0 0
-0 -0 -0 -0 -0 -0 -0 -0 0 0 -0 0 -0 -0 -0 -0 -0 -0 -0 -0 -0 -0 -0 -0 -0 -0 0 -0 0 0 0 0 0 0 0 0 0 0 0 0 0 0 0
-0 -0 0 -0 -0 -0 -0 0 0 0 -0 0 0 -0 -0 -0 -0 -0 -0 0 -0 -0 -0 0 0 0 0 0 0 0 0 0 0 0 0 0 0 0 0 0 0 0 0
-0 -0 -0 0 -0 -0 -0 0 0 0 0 0 -0 -0 -0 0 0 0 -0 0 0 0 0 0 0 0 0 0 0 0 -0 0 0 0 0 0 0 0 0 0 0 0 0
-0 -0 -0 -0 -0 0 0 -0 -0 -0 0 0 -0 -0 0 0 0 0 0 0 0 0 0 0 0 0 0 0 0 0 0 0 0 0 0 0 0 0 0 0 0 0 0
-0 -0 -0 -0 -0 -0 -0 0 0 0 0 0 -0 0 0 0 0 0 0 0 0 0 0 0 0 0 0 0 0 0 0 0 0 0 0 0 0 0 0 0 0 0 0
-0 -0 -0 -0 -0 -0 0 0 -0 -0 0 0 0 0 0 0 0 0 0 0 0 0 0 0 0 0 0 0 0 0 0 0 0 0 0 0 0 0 0 0 0 0 0
-0 -0 -0 -0 -0 -0 -0 -0 -0 -0 -0 0 0 0 0 0 0 0 0 0 0 0 0 0 0 0 0 0 0 0 0 0 0 0 0 0 0 0 0 0 0 0 0
-0 -0 -0 -0 -0 -0 -0 -0 -0 -0 -0 -0 0 0 0 0 0 0 0 0 0 0 0 0 0 0 0 0 0 0 0 0 0 0 0 0 0 0 0 0 0 0 0
0 -0 -0 -0 -0 -0 -0 -0 -0 0 0 0 0 0 0 0 0 0 0 0 0 0 0 0 0 0 0 0 0 0 0 0 0 0 0 0 0 0 0 0 0 0 0
0 0 -0 0 -0 -0 -0 0 0 0 0 0 0 0 0 0 0 0 0 0 0 0 0 0 0 0 0 0 0 0 0 0 0 0 0 0 0 0 0 0 0 0 0
0 0 0 0 0 0 0 0 0 0 0 0 0 0 0 0 0 0 0 0 0 0 0 0 0 0 0 0 0 0 0 0 0 0 0 0 0 0 0 0 0 0 0
0 0 0 0 0 0 0 0 0 0 0 0 0 0 0 0 0 0 0 0 0 0 0 0 0 0 0 0 0 0 0 0 0 0 0 0 0 0 0 0 0 0 0
0 0 0 0 0 0 0 0 0 0 0 0 0 0 0 0 0 0 0 0 0 0 0 0 0 0 0 0 0 0 0 0 0 0 0 0 0 0 0 0 0 0 0
0 0 0 0 0 0 0 0 0 0 0 0 0 0 0 0 0 0 0 0 0 0 0 0 0 0 0 0 0 0 0 0 0 0 0 0 0 0 0 0 0 0 0
0 0 0 0 0 0 0 0 0 0 0 0 0 0 0 0 0 0 0 0 0 0 0 0 0 0 0 0 0 0 0 0 0 0 0 0 0 0 0 0 0 0 0
0 0 0 0 0 0 0 0 0 0 0 0 0 0 0 0 0 0 0 0 0 0 0 0 0 0 0 0 0 0 0 0 0 0 0 0 0 0 0 0 0 0 0
0 0 0 0 0 0 0 0 0 0 0 0 0 0 0 0 0 0 0 0 0 0 0 0 0 0 0 0 0 0 0 0 0 0 0 0 0 0 0 0 0 0 0
0 0 0 0 0 0 0 0 0 0 0 0 0 0 0 0 0 0 0 0 0 0 0 0 0 0 0 0 0 0 0 0 0 0 0 0 0 0 0 0 0 0 0
Wind_Speed_500mb
29 35 24 17 15 13 14 17 22 19 16 16 16 18 22 21 18 15 15 13 12 7 10 20 21 22 26 28 30 33 34 36 37 37 38 38 36 33 32 32 32 32 30
37 35 25 20 16 14 16 18 25 18 11 15 19 27 27 23 17 19 27 21 22 20 23 24 22 26 27 28 30 30 31 33 37 34 30 31 29 27 25 25 26 25 23
36 33 27 23 18 16 17 19 22 21 13 17 23 29 29 26 27 34 31 24 26 26 25 26 26 26 26 24 23 24 27 30 34 30 19 23 23 18 17 20 18 22 19
35 31 28 24 19 18 19 19 21 21 16 19 22 25 29 25 26 33 31 24 28 27 26 24 23 22 20 17 16 17 19 20 27 27 19 27 29 21 19 18 24 20 11
34 31 30 26 20 19 19 19 20 21 22 18 21 22 28 27 25 28 25 25 25 26 26 25 25 23 21 18 16 16 17 18 31 19 26 21 21 17 20 21 20 20 20
34 30 31 27 22 20 19 18 18 20 21 21 18 19 24 26 25 24 23 22 23 26 25 24 23 23 22 21 21 23 28 37 25 25 23 19 19 14 17 15 19 14 14
33 30 31 27 22 19 18 18 18 18 20 22 12 15 18 21 22 21 19 19 20 23 21 22 22 23 24 25 27 30 31 32 23 21 21 17 13 8 10 5 10 4 6
32 31 31 28 23 19 17 16 16 17 17 20 13 12 14 17 18 19 16 15 16 16 17 18 20 21 22 25 27 29 29 31 20 13 16 13 15 16 13 1 8 6 6
31 28 33 30 27 22 19 16 15 15 14 15 14 9 10 12 14 15 14 12 10 12 14 15 18 19 20 23 21 22 25 29 19 8 9 10 18 20 15 9 5 6 3
33 30 32 31 30 26 22 20 17 15 14 14 12 9 6 7 10 11 11 9 7 9 11 13 15 15 16 15 16 16 19 22 12 5 7 12 15 12 10 7 2 6 3
34 33 32 33 31 27 25 21 19 17 15 13 12 9 5 3 6 6 7 4 5 7 9 10 11 12 11 9 9 13 19 8 6 5 3 9 15 10 10 4 8 6 5
39 38 38 38 33 32 26 25 23 20 17 16 15 12 8 8 3 1 0 4 5 6 8 8 8 8 9 5 6 9 7 8 5 5 8 10 12 17 13 8 2 6 5
39 38 42 44 41 38 34 30 27 26 23 21 18 15 16 11 6 4 2 5 6 6 8 8 7 4 5 7 4 6 7 8 1 4 10 7 12 18 21 8 1 4 5
40 42 40 46 46 45 41 36 31 27 28 25 23 20 16 13 10 7 3 5 8 9 11 10 9 6 4 3 3 2 3 6 4 2 10 6 9 16 19 14 6 2 1
40 40 41 40 48 48 46 42 40 34 31 29 29 26 22 19 16 12 8 7 10 12 12 11 9 8 5 4 2 1 1 1 5 5 16 11 11 15 17 17 15 9 5
39 41 40 44 46 47 48 49 46 43 39 33 35 32 28 26 22 20 16 12 12 14 13 14 12 10 8 6 5 4 6 10 10 11 12 20 15 15 18 18 17 15 14
38 37 41 44 47 48 47 47 48 45 45 44 40 38 35 33 30 27 24 21 16 16 16 16 16 14 12 11 12 13 16 19 22 22 22 22 29 24 23 23 23 22 20
37 40 40 45 44 46 47 47 47 45 42 41 39 39 40 39 37 33 32 29 28 23 19 19 16 17 17 18 20 22 25 29 31 32 33 36 31 35 36 31 31 31 29
39 39 41 45 47 47 47 47 46 47 47 43 40 38 37 38 41 40 38 36 37 35 33 29 26 26 27 31 34 35 38 40 42 43 46 45 45 41 40 46 41 39 39
40 40 42 45 47 50 50 51 52 54 53 51 48 42 40 39 37 40 44 43 45 43 43 42 39 38 39 42 44 47 50 51 54 54 56 57 55 54 55 49 53 53 50
41 44 47 46 45 53 55 58 61 61 58 57 55 50 46 44 41 41 43 46 50 46 47 48 48 50 53 54 57 61 59 63 64 65 64 66 64 62 63 64 61 61 64
50 53 55 52 50 54 59 61 60 57 60 58 56 56 52 50 48 48 47 47 50 48 50 52 54 57 58 61 66 58 51 55 66 66 55 51 56 62 66 69 71 71 69
43 51 62 63 58 53 56 56 57 53 54 57 58 59 57 52 53 51 46 47 51 50 50 53 54 61 64 73 70 60 23 30 42 48 51 51 53 55 64 70 70 72 77
38 40 43 48 51 57 54 47 50 58 60 56 52 55 53 50 51 53 48 46 47 47 55 49 49 56 59 69 66 73 73 75 38 39 50 48 58 73 68 70 66 74 74
24 30 33 36 40 44 53 53 50 52 47 37 37 41 44 43 42 45 44 43 46 50 49 50 55 53 57 66 67 68 68 72 73 77 72 80 80 75 76 75 75 76 71
11 12 14 18 21 29 39 47 47 42 42 34 36 38 40 40 37 37 36 39 40 41 50 47 47 50 52 56 59 57 54 61 63 64 75 81 78 87 84 83 79 76 77
Wind_Direction_500mb
150 171 166 145 132 122 112 104 104 93 84 68 71 75 91 107 110 102 90 114 166 158 113 124 109 114 104 94 90 93 91 91 90 89 91 92 91 88 84 84 83 83 82
148 164 163 146 131 121 118 108 111 107 87 75 85 85 93 100 111 107 96 82 97 111 103 107 111 111 109 102 97 95 95 94 93 80 77 82 81 79 79 78 80 86 88
150 165 158 145 132 126 122 118 118 115 104 83 83 85 91 89 81 93 95 85 88 99 104 104 107 114 116 110 106 100 99 99 86 75 70 64 61 53 80 91 86 84 88
151 157 155 144 134 127 123 122 123 130 111 93 91 84 81 83 79 89 98 83 90 90 95 101 108 114 118 119 115 113 110 102 89 75 68 75 77 82 72 81 80 73 71
150 148 157 146 136 130 127 124 120 119 118 103 94 92 82 80 79 82 92 91 88 91 92 95 100 105 110 113 114 110 106 94 85 79 91 82 77 90 89 80 83 85 74
152 155 156 149 142 137 132 124 117 111 116 114 104 92 79 74 73 77 81 92 83 85 86 91 99 103 104 106 105 104 105 99 111 100 86 81 85 82 92 77 85 90 74
155 165 162 154 149 143 136 128 123 117 120 118 121 89 75 68 66 70 75 79 83 81 83 91 98 101 103 103 102 105 103 97 86 95 91 83 73 29 63 65 92 89 64
161 171 168 162 159 154 145 137 130 123 123 132 131 101 84 70 64 67 75 83 86 91 89 95 101 101 103 104 103 104 104 95 93 93 97 72 45 23 358 9 130 103 119
169 169 173 172 169 166 160 154 144 134 130 138 139 118 90 75 65 63 74 88 83 91 98 102 104 104 104 107 105 108 102 109 84 73 66 54 12 10 31 86 116 159 118
175 180 181 182 180 179 176 171 164 157 153 153 155 140 110 82 65 55 72 91 91 101 104 103 101 101 106 104 100 104 96 92 90 109 95 22 7 36 31 115 151 147 160
184 180 191 195 186 191 188 186 182 178 174 171 175 169 172 110 79 49 55 98 111 119 123 119 109 102 100 97 102 105 91 110 87 340 338 8 351 349 328 318 269 222 202
190 187 205 196 199 194 200 198 198 197 194 197 197 190 153 169 198 299 219 179 168 155 145 137 121 108 89 70 115 108 106 132 118 310 298 350 352 351 332 314 353 130 177
197 195 210 204 203 203 202 211 209 205 207 209 213 205 208 209 212 261 269 206 189 176 163 166 159 150 160 160 184 163 183 121 168 196 329 6 342 357 360 330 188 256 180
205 203 211 212 213 214 213 214 212 215 216 220 222 223 225 226 227 231 264 218 207 183 201 190 198 191 184 163 144 141 140 169 187 236 307 351 338 345 0 355 323 316 326
211 212 211 217 221 222 222 223 219 219 225 225 230 231 231 229 228 230 233 225 217 209 207 208 205 201 201 198 180 92 43 279 240 226 288 320 326 325 341 348 352 330 325
209 212 215 217 226 225 227 230 231 232 232 229 234 235 231 232 232 230 230 229 226 216 218 214 213 218 228 232 241 282 313 314 312 291 275 297 292 301 306 317 317 333 299
211 212 216 226 228 232 233 235 236 237 237 236 236 238 236 233 234 233 233 232 233 226 226 227 226 228 235 251 275 288 294 301 296 288 276 271 290 277 276 284 295 298 305
216 215 221 230 233 232 235 235 235 237 240 237 237 239 240 237 237 236 237 236 235 232 228 234 236 236 251 261 268 277 278 279 286 283 278 277 268 277 285 275 275 283 286
221 220 222 231 236 233 235 237 238 238 239 241 238 236 239 240 238 240 240 240 242 239 237 237 244 255 264 263 265 273 278 279 282 282 280 278 276 272 267 281 279 272 272
227 225 226 231 235 237 234 236 239 240 241 243 245 241 242 241 241 240 241 242 245 244 246 247 247 247 256 268 271 271 272 274 276 277 279 277 275 274 274 267 274 277 276
236 233 233 227 230 241 237 235 238 241 243 244 247 248 246 246 245 244 242 244 247 248 251 254 254 258 258 260 267 270 272 274 276 279 277 279 280 281 277 278 274 273 275
245 240 235 232 229 237 242 241 241 245 247 252 254 253 251 250 250 248 247 248 252 254 255 259 260 262 264 267 263 270 273 281 281 285 282 285 284 282 285 278 273 276 277
248 243 240 238 235 230 243 242 236 237 244 250 249 253 254 251 251 252 254 255 257 260 262 266 267 268 269 268 266 259 258 265 272 276 280 276 284 289 293 287 280 278 278
237 242 240 240 241 237 223 230 238 235 237 247 252 257 256 255 251 253 253 258 261 260 258 268 271 273 270 277 278 276 269 263 270 283 280 279 279 289 286 286 283 288 282
235 239 237 238 240 236 219 220 227 241 236 241 251 248 254 257 250 248 246 250 251 260 269 273 272 285 277 282 282 275 285 279 276 270 277 294 293 294 294 295 282 285 284
194 213 223 228 233 226 218 221 222 235 235 227 226 243 251 253 249 246 245 249 257 260 269 275 277 279 281 284 285 290 290 284 287 287 286 289 291 294 292 291 290 288 291
Wind_Speed_850mb
29 35 24 17 15 13 14 17 22 19 16 16 16 18 22 21 18 15 15 13 12 7 10 20 21 22 26 28 30 33 34 36 37 37 38 38 36 33 32 32 32 32 30
37 35 25 20 16 14 16 18 25 18 11 15 19 27 27 23 17 19 27 21 22 20 23 24 22 26 27 28 30 30 31 33 37 34 30 31 29 27 25 25 26 25 23
36 33 27 23 18 16 17 19 22 21 13 17 23 29 29 26 27 34 31 24 26 26 25 26 26 26 26 24 23 24 27 30 34 30 19 23 23 18 17 20 18 22 19
35 31 28 24 19 18 19 19 21 21 16 19 22 25 29 25 26 33 31 24 28 27 26 24 23 22 20 17 16 17 19 20 27 27 19 27 29 21 19 18 24 20 11
34 31 30 26 20 19 19 19 20 21 22 18 21 22 28 27 25 28 25 25 25 26 26 25 25 23 21 18 16 16 17 18 31 19 26 21 21 17 20 21 20 20 20
34 30 31 27 22 20 19 18 18 20 21 21 18 19 24 26 25 24 23 22 23 26 25 24 23 23 22 21 21 23 28 37 25 25 23 19 19 14 17 15 19 14 14
33 30 31 27 22 19 18 18 18 18 20 22 12 15 18 21 22 21 19 19 20 23 21 22 22 23 24 25 27 30 31 32 23 21 21 17 13 8 10 5 10 4 6
32 31 31 28 23 19 17 16 16 17 17 20 13 12 14 17 18 19 16 15 16 16 17 18 20 21 22 25 27 29 29 31 20 13 16 13 15 16 13 1 8 6 6
31 28 33 30 27 22 19 16 15 15 14 15 14 9 10 12 14 15 14 12 10 12 14 15 18 19 20 23 21 22 25 29 19 8 9 10 18 20 15 9 5 6 3
33 30 32 31 30 26 22 20 17 15 14 14 12 9 6 7 10 11 11 9 7 9 11 13 15 15 16 15 16 16 19 22 12 5 7 12 15 12 10 7 2 6 3
34 33 32 33 31 27 25 21 19 17 15 13 12 9 5 3 6 6 7 4 5 7 9 10 11 12 11 9 9 13 19 8 6 5 3 9 15 10 10 4 8 6 5
39 38 38 38 33 32 26 25 23 20 17 16 15 12 8 8 3 1 0 4 5 6 8 8 8 8 9 5 6 9 7 8 5 5 8 10 12 17 13 8 2 6 5
39 38 42 44 41 38 34 30 27 26 23 21 18 15 16 11 6 4 2 5 6 6 8 8 7 4 5 7 4 6 7 8 1 4 10 7 12 18 21 8 1 4 5
40 42 40 46 46 45 41 36 31 27 28 25 23 20 16 13 10 7 3 5 8 9 11 10 9 6 4 3 3 2 3 6 4 2 10 6 9 16 19 14 6 2 1
40 40 41 40 48 48 46 42 40 34 31 29 29 26 22 19 16 12 8 7 10 12 12 11 9 8 5 4 2 1 1 1 5 5 16 11 11 15 17 17 15 9 5
39 41 40 44 46 47 48 49 46 43 39 33 35 32 28 26 22 20 16 12 12 14 13 14 12 10 8 6 5 4 6 10 10 11 12 20 15 15 18 18 17 15 14
38 37 41 44 47 48 47 47 48 45 45 44 40 38 35 33 30 27 24 21 16 16 16 16 16 14 12 11 12 13 16 19 22 22 22 22 29 24 23 23 23 22 20
37 40 40 45 44 46 47 47 47 45 42 41 39 39 40 39 37 33 32 29 28 23 19 19 16 17 17 18 20 22 25 29 31 32 33 36 31 35 36 31 31 31 29
39 39 41 45 47 47 47 47 46 47 47 43 40 38 37 38 41 40 38 36 37 35 33 29 26 26 27 31 34 35 38 40 42 43 46 45 45 41 40 46 41 39 39
40 40 42 45 47 50 50 51 52 54 53 51 48 42 40 39 37 40 44 43 45 43 43 42 39 38 39 42 44 47 50 51 54 54 56 57 55 54 55 49 53 53 50
41 44 47 46 45 53 55 58 61 61 58 57 55 50 46 44 41 41 43 46 50 46 47 48 48 50 53 54 57 61 59 63 64 65 64 66 64 62 63 64 61 61 64
50 53 55 52 50 54 59 61 60 57 60 58 56 56 52 50 48 48 47 47 50 48 50 52 54 57 58 61 66 58 51 55 66 66 55 51 56 62 66 69 71 71 69
43 51 62 63 58 53 56 56 57 53 54 57 58 59 57 52 53 51 46 47 51 50 50 53 54 61 64 73 70 60 23 30 42 48 51 51 53 55 64 70 70 72 77
38 40 43 48 51 57 54 47 50 58 60 56 52 55 53 50 51 53 48 46 47 47 55 49 49 56 59 69 66 73 73 75 38 39 50 48 58 73 68 70 66 74 74
24 30 33 36 40 44 53 53 50 52 47 37 37 41 44 43 42 45 44 43 46 50 49 50 55 53 57 66 67 68 68 72 73 77 72 80 80 75 76 75 75 76 71
11 12 14 18 21 29 39 47 47 42 42 34 36 38 40 40 37 37 36 39 40 41 50 47 47 50 52 56 59 57 54 61 63 64 75 81 78 87 84 83 79 76 77
Wind_Direction_850mb
150 171 166 145 132 122 112 104 104 93 84 68 71 75 91 107 110 102 90 114 166 158 113 124 109 114 104 94 90 93 91 91 90 89 91 92 91 88 84 84 83 83 82
148 164 163 146 131 121 118 108 111 107 87 75 85 85 93 100 111 107 96 82 97 111 103 107 111 111 109 102 97 95 95 94 93 80 77 82 81 79 79 78 80 86 88
150 165 158 145 132 126 122 118 118 115 104 83 83 85 91 89 81 93 95 85 88 99 104 104 107 114 116 110 106 100 99 99 86 75 70 64 61 53 80 91 86 84 88
151 157 155 144 134 127 123 122 123 130 111 93 91 84 81 83 79 89 98 83 90 90 95 101 108 114 118 119 115 113 110 102 89 75 68 75 77 82 72 81 80 73 71
150 148 157 146 136 130 127 124 120 119 118 103 94 92 82 80 79 82 92 91 88 91 92 95 100 105 110 113 114 110 106 94 85 79 91 82 77 90 89 80 83 85 74
152 155 156 149 142 137 132 124 117 111 116 114 104 92 79 74 73 77 81 92 83 85 86 91 99 103 104 106 105 104 105 99 111 100 86 81 85 82 92 77 85 90 74
155 165 162 154 149 143 136 128 123 117 120 118 121 89 75 68 66 70 75 79 83 81 83 91 98 101 103 103 102 105 103 97 86 95 91 83 73 29 63 65 92 89 64
161 171 168 162 159 154 145 137 130 123 123 132 131 101 84 70 64 67 75 83 86 91 89 95 101 101 103 104 103 104 104 95 93 93 97 72 45 23 358 9 130 103 119
169 169 173 172 169 166 160 154 144 134 130 138 139 118 90 75 65 63 74 88 83 91 98 102 104 104 104 107 105 108 102 109 84 73 66 54 12 10 31 86 116 159 118
175 180 181 182 180 179 176 171 164 157 153 153 155 140 110 82 65 55 72 91 91 101 104 103 101 101 106 104 100 104 96 92 90 109 95 22 7 36 31 115 151 147 160
184 180 191 195 186 191 188 186 182 178 174 171 175 169 172 110 79 49 55 98 111 119 123 119 109 102 100 97 102 105 91 110 87 340 338 8 351 349 328 318 269 222 202
190 187 205 196 199 194 200 198 198 197 194 197 197 190 153 169 198 299 219 179 168 155 145 137 121 108 89 70 115 108 106 132 118 310 298 350 352 351 332 314 353 130 177
197 195 210 204 203 203 202 211 209 205 207 209 213 205 208 209 212 261 269 206 189 176 163 166 159 150 160 160 184 163 183 121 168 196 329 6 342 357 360 330 188 256 180
205 203 211 212 213 214 213 214 212 215 216 220 222 223 225 226 227 231 264 218 207 183 201 190 198 191 184 163 144 141 140 169 187 236 307 351 338 345 0 355 323 316 326
211 212 211 217 221 222 222 223 219 219 225 225 230 231 231 229 228 230 233 225 217 209 207 208 205 201 201 198 180 92 43 279 240 226 288 320 326 325 341 348 352 330 325
209 212 215 217 226 225 227 230 231 232 232 229 234 235 231 232 232 230 230 229 226 216 218 214 213 218 228 232 241 282 313 314 312 291 275 297 292 301 306 317 317 333 299
211 212 216 226 228 232 233 235 236 237 237 236 236 238 236 233 234 233 233 232 233 226 226 227 226 228 235 251 275 288 294 301 296 288 276 271 290 277 276 284 295 298 305
216 215 221 230 233 232 235 235 235 237 240 237 237 239 240 237 237 236 237 236 235 232 228 234 236 236 251 261 268 277 278 279 286 283 278 277 268 277 285 275 275 283 286
221 220 222 231 236 233 235 237 238 238 239 241 238 236 239 240 238 240 240 240 242 239 237 237 244 255 264 263 265 273 278 279 282 282 280 278 276 272 267 281 279 272 272
227 225 226 231 235 237 234 236 239 240 241 243 245 241 242 241 241 240 241 242 245 244 246 247 247 247 256 268 271 271 272 274 276 277 279 277 275 274 274 267 274 277 276
236 233 233 227 230 241 237 235 238 241 243 244 247 248 246 246 245 244 242 244 247 248 251 254 254 258 258 260 267 270 272 274 276 279 277 279 280 281 277 278 274 273 275
245 240 235 232 229 237 242 241 241 245 247 252 254 253 251 250 250 248 247 248 252 254 255 259 260 262 264 267 263 270 273 281 281 285 282 285 284 282 285 278 273 276 277
248 243 240 238 235 230 243 242 236 237 244 250 249 253 254 251 251 252 254 255 257 260 262 266 267 268 269 268 266 259 258 265 272 276 280 276 284 289 293 287 280 278 278
237 242 240 240 241 237 223 230 238 235 237 247 252 257 256 255 251 253 253 258 261 260 258 268 271 273 270 277 278 276 269 263 270 283 280 279 279 289 286 286 283 288 282
235 239 237 238 240 236 219 220 227 241 236 241 251 248 254 257 250 248 246 250 251 260 269 273 272 285 277 282 282 275 285 279 276 270 277 294 293 294 294 295 282 285 284
194 213 223 228 233 226 218 221 222 235 235 227 226 243 251 253 249 246 245 249 257 260 269 275 277 279 281 284 285 290 290 284 287 287 286 289 291 294 292 291 290 288 291